owner,sensor,date,latitude,longitude,vertical_datum,sea_water_practical_salinity,qcFlag 
SCCF RECON,ioos:station:SCCF:51:1,2008-03-01T00:00:00Z,26.5545,-82.1715,1.91,36.95,1111122 
SCCF RECON,ioos:station:SCCF:51:1,2008-03-01T01:00:00Z,26.5545,-82.1715,1.85,36.99,1111122 
SCCF RECON,ioos:station:SCCF:51:1,2008-03-01T02:00:00Z,26.5545,-82.1715,1.778,37.0,1111122 
SCCF RECON,ioos:station:SCCF:51:1,2008-03-01T03:00:00Z,26.5545,-82.1715,1.692,37.0,1111122 
SCCF RECON,ioos:station:SCCF:51:1,2008-03-01T05:00:00Z,26.5545,-82.1715,1.53,37.11,1111122 
SCCF RECON,ioos:station:SCCF:51:1,2008-03-01T06:00:00Z,26.5545,-82.1715,1.451,37.11,1111122 
SCCF RECON,ioos:station:SCCF:51:1,2008-03-01T07:00:00Z,26.5545,-82.1715,1.389,37.09,1111122 
SCCF RECON,ioos:station:SCCF:51:1,2008-03-01T08:00:00Z,26.5545,-82.1715,1.34,37.09,1111122 
SCCF RECON,ioos:station:SCCF:51:1,2008-03-01T09:00:00Z,26.5545,-82.1715,1.332,37.09,1111122 
SCCF RECON,ioos:station:SCCF:51:1,2008-03-01T10:00:00Z,26.5545,-82.1715,1.378,37.11,1111122 
SCCF RECON,ioos:station:SCCF:51:1,2008-03-01T11:00:00Z,26.5545,-82.1715,1.437,37.08,1111122 
SCCF RECON,ioos:station:SCCF:51:1,2008-03-01T12:00:00Z,26.5545,-82.1715,1.506,37.08,1111122 
SCCF RECON,ioos:station:SCCF:51:1,2008-03-01T13:00:00Z,26.5545,-82.1715,1.578,37.04,1111122 
SCCF RECON,ioos:station:SCCF:51:1,2008-03-01T14:00:00Z,26.5545,-82.1715,1.649,37.01,1111122 
SCCF RECON,ioos:station:SCCF:51:1,2008-03-01T15:00:00Z,26.5545,-82.1715,1.719,36.98,1111122 
SCCF RECON,ioos:station:SCCF:51:1,2008-03-01T16:00:00Z,26.5545,-82.1715,1.76,36.97,1111122 
SCCF RECON,ioos:station:SCCF:51:1,2008-03-01T17:00:00Z,26.5545,-82.1715,1.772,36.93,1111122 
SCCF RECON,ioos:station:SCCF:51:1,2008-03-01T18:00:00Z,26.5545,-82.1715,1.766,36.95,1111122 
SCCF RECON,ioos:station:SCCF:51:1,2008-03-01T19:00:00Z,26.5545,-82.1715,1.759,36.92,1111122 
SCCF RECON,ioos:station:SCCF:51:1,2008-03-01T20:00:00Z,26.5545,-82.1715,1.761,36.91,1111122 
SCCF RECON,ioos:station:SCCF:51:1,2008-03-01T21:00:00Z,26.5545,-82.1715,1.796,36.95,1111122 
SCCF RECON,ioos:station:SCCF:51:1,2008-03-01T22:00:00Z,26.5545,-82.1715,1.83,36.96,1111122 
SCCF RECON,ioos:station:SCCF:51:1,2008-03-01T23:00:00Z,26.5545,-82.1715,1.857,36.95,1111122 
SCCF RECON,ioos:station:SCCF:51:1,2008-03-02T00:00:00Z,26.5545,-82.1715,1.871,36.96,1111122 
SCCF RECON,ioos:station:SCCF:51:1,2008-03-02T01:00:00Z,26.5545,-82.1715,1.85,37.0,1111122 
SCCF RECON,ioos:station:SCCF:51:1,2008-03-02T02:00:00Z,26.5545,-82.1715,1.79,37.03,1111122 
SCCF RECON,ioos:station:SCCF:51:1,2008-03-02T03:00:00Z,26.5545,-82.1715,1.726,37.02,1111122 
SCCF RECON,ioos:station:SCCF:51:1,2008-03-02T04:00:00Z,26.5545,-82.1715,1.647,37.02,1111122 
SCCF RECON,ioos:station:SCCF:51:1,2008-03-02T05:00:00Z,26.5545,-82.1715,1.57,37.01,1111122 
SCCF RECON,ioos:station:SCCF:51:1,2008-03-02T06:00:00Z,26.5545,-82.1715,1.484,37.03,1111122 
SCCF RECON,ioos:station:SCCF:51:1,2008-03-02T07:00:00Z,26.5545,-82.1715,1.402,37.03,1111122 
SCCF RECON,ioos:station:SCCF:51:1,2008-03-02T08:00:00Z,26.5545,-82.1715,1.324,37.04,1111122 
SCCF RECON,ioos:station:SCCF:51:1,2008-03-02T09:00:00Z,26.5545,-82.1715,1.258,37.05,1111122 
SCCF RECON,ioos:station:SCCF:51:1,2008-03-02T10:00:00Z,26.5545,-82.1715,1.245,37.05,1111122 
SCCF RECON,ioos:station:SCCF:51:1,2008-03-02T11:00:00Z,26.5545,-82.1715,1.296,37.05,1111122 
SCCF RECON,ioos:station:SCCF:51:1,2008-03-02T12:00:00Z,26.5545,-82.1715,1.375,37.04,1111122 
SCCF RECON,ioos:station:SCCF:51:1,2008-03-02T13:00:00Z,26.5545,-82.1715,1.477,37.06,1111122 
SCCF RECON,ioos:station:SCCF:51:1,2008-03-02T14:00:00Z,26.5545,-82.1715,1.565,37.0,1111122 
SCCF RECON,ioos:station:SCCF:51:1,2008-03-02T15:00:00Z,26.5545,-82.1715,1.644,36.99,1111122 
SCCF RECON,ioos:station:SCCF:51:1,2008-03-02T16:00:00Z,26.5545,-82.1715,1.702,36.98,1111122 
SCCF RECON,ioos:station:SCCF:51:1,2008-03-02T17:00:00Z,26.5545,-82.1715,1.724,36.98,1111122 
SCCF RECON,ioos:station:SCCF:51:1,2008-03-02T18:00:00Z,26.5545,-82.1715,1.713,37.02,1111122 
SCCF RECON,ioos:station:SCCF:51:1,2008-03-02T19:00:00Z,26.5545,-82.1715,1.689,37.0,1111122 
SCCF RECON,ioos:station:SCCF:51:1,2008-03-02T20:00:00Z,26.5545,-82.1715,1.694,36.99,1111122 
SCCF RECON,ioos:station:SCCF:51:1,2008-03-02T21:00:00Z,26.5545,-82.1715,1.729,36.98,1111122 
SCCF RECON,ioos:station:SCCF:51:1,2008-03-02T22:00:00Z,26.5545,-82.1715,1.782,36.98,1111122 
SCCF RECON,ioos:station:SCCF:51:1,2008-03-02T23:00:00Z,26.5545,-82.1715,1.839,36.98,1111122 
SCCF RECON,ioos:station:SCCF:51:1,2008-03-03T00:00:00Z,26.5545,-82.1715,1.885,37.0,1111122 
SCCF RECON,ioos:station:SCCF:51:1,2008-03-03T01:00:00Z,26.5545,-82.1715,1.907,37.0,1111122 
SCCF RECON,ioos:station:SCCF:51:1,2008-03-03T02:00:00Z,26.5545,-82.1715,1.889,36.98,1111122 
SCCF RECON,ioos:station:SCCF:51:1,2008-03-03T03:00:00Z,26.5545,-82.1715,1.844,36.96,1111122 
SCCF RECON,ioos:station:SCCF:51:1,2008-03-03T04:00:00Z,26.5545,-82.1715,1.786,37.01,1111122 
SCCF RECON,ioos:station:SCCF:51:1,2008-03-03T05:00:00Z,26.5545,-82.1715,1.708,37.09,1111122 
SCCF RECON,ioos:station:SCCF:51:1,2008-03-03T06:00:00Z,26.5545,-82.1715,1.608,37.09,1111122 
SCCF RECON,ioos:station:SCCF:51:1,2008-03-03T08:00:00Z,26.5545,-82.1715,1.41,37.14,1111122 
SCCF RECON,ioos:station:SCCF:51:1,2008-03-03T09:00:00Z,26.5545,-82.1715,1.343,37.15,1111122 
SCCF RECON,ioos:station:SCCF:51:1,2008-03-03T10:00:00Z,26.5545,-82.1715,1.319,37.17,1111122 
SCCF RECON,ioos:station:SCCF:51:1,2008-03-03T11:00:00Z,26.5545,-82.1715,1.363,37.16,1111122 
SCCF RECON,ioos:station:SCCF:51:1,2008-03-03T12:00:00Z,26.5545,-82.1715,1.449,37.15,1111122 
SCCF RECON,ioos:station:SCCF:51:1,2008-03-03T13:00:00Z,26.5545,-82.1715,1.55,37.12,1111122 
SCCF RECON,ioos:station:SCCF:51:1,2008-03-03T14:00:00Z,26.5545,-82.1715,1.644,37.04,1111122 
SCCF RECON,ioos:station:SCCF:51:1,2008-03-03T15:00:00Z,26.5545,-82.1715,1.728,37.05,1111122 
SCCF RECON,ioos:station:SCCF:51:1,2008-03-03T16:00:00Z,26.5545,-82.1715,1.793,37.05,1111122 
SCCF RECON,ioos:station:SCCF:51:1,2008-03-03T17:00:00Z,26.5545,-82.1715,1.826,37.01,1111122 
SCCF RECON,ioos:station:SCCF:51:1,2008-03-03T18:00:00Z,26.5545,-82.1715,1.809,37.02,1111122 
SCCF RECON,ioos:station:SCCF:51:1,2008-03-03T20:00:00Z,26.5545,-82.1715,1.748,37.02,1111122 
SCCF RECON,ioos:station:SCCF:51:1,2008-03-03T21:00:00Z,26.5545,-82.1715,1.764,37.03,1111122 
SCCF RECON,ioos:station:SCCF:51:1,2008-03-03T22:00:00Z,26.5545,-82.1715,1.804,37.03,1111122 
SCCF RECON,ioos:station:SCCF:51:1,2008-03-03T23:00:00Z,26.5545,-82.1715,1.856,37.01,1111122 
SCCF RECON,ioos:station:SCCF:51:1,2008-03-04T00:00:00Z,26.5545,-82.1715,1.91,37.0,1111122 
SCCF RECON,ioos:station:SCCF:51:1,2008-03-04T01:00:00Z,26.5545,-82.1715,1.97,36.99,1111122 
SCCF RECON,ioos:station:SCCF:51:1,2008-03-04T02:00:00Z,26.5545,-82.1715,1.998,36.98,1111122 
SCCF RECON,ioos:station:SCCF:51:1,2008-03-04T03:00:00Z,26.5545,-82.1715,1.999,36.98,1111122 
SCCF RECON,ioos:station:SCCF:51:1,2008-03-04T04:00:00Z,26.5545,-82.1715,1.956,37.0,1111122 
SCCF RECON,ioos:station:SCCF:51:1,2008-03-04T05:00:00Z,26.5545,-82.1715,1.879,37.01,1111122 
SCCF RECON,ioos:station:SCCF:51:1,2008-03-04T06:00:00Z,26.5545,-82.1715,1.793,37.03,1111122 
SCCF RECON,ioos:station:SCCF:51:1,2008-03-04T07:00:00Z,26.5545,-82.1715,1.683,36.98,1111122 
SCCF RECON,ioos:station:SCCF:51:1,2008-03-04T08:00:00Z,26.5545,-82.1715,1.559,37.05,1111122 
SCCF RECON,ioos:station:SCCF:51:1,2008-03-04T09:00:00Z,26.5545,-82.1715,1.446,37.0,1111122 
SCCF RECON,ioos:station:SCCF:51:1,2008-03-04T10:00:00Z,26.5545,-82.1715,1.375,36.87,1111122 
SCCF RECON,ioos:station:SCCF:51:1,2008-03-04T11:00:00Z,26.5545,-82.1715,1.362,36.86,1111122 
SCCF RECON,ioos:station:SCCF:51:1,2008-03-04T12:00:00Z,26.5545,-82.1715,1.415,36.9,1111122 
SCCF RECON,ioos:station:SCCF:51:1,2008-03-04T13:00:00Z,26.5545,-82.1715,1.527,36.98,1111122 
SCCF RECON,ioos:station:SCCF:51:1,2008-03-04T14:00:00Z,26.5545,-82.1715,1.64,36.93,1111122 
SCCF RECON,ioos:station:SCCF:51:1,2008-03-04T15:00:00Z,26.5545,-82.1715,1.746,36.88,1111122 
SCCF RECON,ioos:station:SCCF:51:1,2008-03-04T16:00:00Z,26.5545,-82.1715,1.82,36.95,1111122 
SCCF RECON,ioos:station:SCCF:51:1,2008-03-04T17:00:00Z,26.5545,-82.1715,1.881,36.96,1111122 
SCCF RECON,ioos:station:SCCF:51:1,2008-03-04T18:00:00Z,26.5545,-82.1715,1.88,36.97,1111122 
SCCF RECON,ioos:station:SCCF:51:1,2008-03-04T19:00:00Z,26.5545,-82.1715,1.836,36.99,1111122 
SCCF RECON,ioos:station:SCCF:51:1,2008-03-04T20:00:00Z,26.5545,-82.1715,1.785,36.81,1111122 
SCCF RECON,ioos:station:SCCF:51:1,2008-03-04T21:00:00Z,26.5545,-82.1715,1.753,36.8,1111122 
SCCF RECON,ioos:station:SCCF:51:1,2008-03-04T22:00:00Z,26.5545,-82.1715,1.72,36.8,1111122 
SCCF RECON,ioos:station:SCCF:51:1,2008-03-04T23:00:00Z,26.5545,-82.1715,1.73,36.8,1111122 
SCCF RECON,ioos:station:SCCF:51:1,2008-03-05T00:00:00Z,26.5545,-82.1715,1.8,36.8,1111122 
SCCF RECON,ioos:station:SCCF:51:1,2008-03-05T01:00:00Z,26.5545,-82.1715,1.904,36.96,1111122 
SCCF RECON,ioos:station:SCCF:51:1,2008-03-05T02:00:00Z,26.5545,-82.1715,1.997,36.97,1111122 
SCCF RECON,ioos:station:SCCF:51:1,2008-03-05T03:00:00Z,26.5545,-82.1715,2.029,36.98,1111122 
SCCF RECON,ioos:station:SCCF:51:1,2008-03-05T04:00:00Z,26.5545,-82.1715,2.02,36.98,1111122 
SCCF RECON,ioos:station:SCCF:51:1,2008-03-05T05:00:00Z,26.5545,-82.1715,1.977,36.94,1111122 
SCCF RECON,ioos:station:SCCF:51:1,2008-03-05T06:00:00Z,26.5545,-82.1715,1.9,36.8,1111122 
SCCF RECON,ioos:station:SCCF:51:1,2008-03-05T07:00:00Z,26.5545,-82.1715,1.79,36.79,1111122 
SCCF RECON,ioos:station:SCCF:51:1,2008-03-05T08:00:00Z,26.5545,-82.1715,1.67,36.78,1111122 
SCCF RECON,ioos:station:SCCF:51:1,2008-03-05T09:00:00Z,26.5545,-82.1715,1.56,36.77,1111122 
SCCF RECON,ioos:station:SCCF:51:1,2008-03-05T10:00:00Z,26.5545,-82.1715,1.467,36.76,1111122 
SCCF RECON,ioos:station:SCCF:51:1,2008-03-05T11:00:00Z,26.5545,-82.1715,1.399,36.8,1111122 
SCCF RECON,ioos:station:SCCF:51:1,2008-03-05T12:00:00Z,26.5545,-82.1715,1.384,36.8,1111122 
SCCF RECON,ioos:station:SCCF:51:1,2008-03-05T13:00:00Z,26.5545,-82.1715,1.46,36.75,1111122 
SCCF RECON,ioos:station:SCCF:51:1,2008-03-05T14:00:00Z,26.5545,-82.1715,1.567,36.82,1111122 
SCCF RECON,ioos:station:SCCF:51:1,2008-03-05T15:00:00Z,26.5545,-82.1715,1.699,36.91,1111122 
SCCF RECON,ioos:station:SCCF:51:1,2008-03-05T16:00:00Z,26.5545,-82.1715,1.816,36.94,1111122 
SCCF RECON,ioos:station:SCCF:51:1,2008-03-05T17:00:00Z,26.5545,-82.1715,1.9,36.94,1111122 
SCCF RECON,ioos:station:SCCF:51:1,2008-03-05T18:00:00Z,26.5545,-82.1715,1.921,36.9,1111122 
SCCF RECON,ioos:station:SCCF:51:1,2008-03-05T20:00:00Z,26.5545,-82.1715,1.798,36.86,1111122 
SCCF RECON,ioos:station:SCCF:51:1,2008-03-05T21:00:00Z,26.5545,-82.1715,1.716,36.83,1111122 
SCCF RECON,ioos:station:SCCF:51:1,2008-03-05T22:00:00Z,26.5545,-82.1715,1.671,36.84,1111122 
SCCF RECON,ioos:station:SCCF:51:1,2008-03-05T23:00:00Z,26.5545,-82.1715,1.667,36.86,1111122 
SCCF RECON,ioos:station:SCCF:51:1,2008-03-06T00:00:00Z,26.5545,-82.1715,1.728,36.95,1111122 
SCCF RECON,ioos:station:SCCF:51:1,2008-03-06T01:00:00Z,26.5545,-82.1715,1.803,36.93,1111122 
SCCF RECON,ioos:station:SCCF:51:1,2008-03-06T02:00:00Z,26.5545,-82.1715,1.889,36.93,1111122 
SCCF RECON,ioos:station:SCCF:51:1,2008-03-06T03:00:00Z,26.5545,-82.1715,1.971,37.02,1111122 
SCCF RECON,ioos:station:SCCF:51:1,2008-03-06T04:00:00Z,26.5545,-82.1715,2.008,37.03,1111122 
SCCF RECON,ioos:station:SCCF:51:1,2008-03-06T05:00:00Z,26.5545,-82.1715,1.999,37.03,1111122 
SCCF RECON,ioos:station:SCCF:51:1,2008-03-06T06:00:00Z,26.5545,-82.1715,1.921,37.01,1111122 
SCCF RECON,ioos:station:SCCF:51:1,2008-03-06T07:00:00Z,26.5545,-82.1715,1.83,36.95,1111122 
SCCF RECON,ioos:station:SCCF:51:1,2008-03-06T08:00:00Z,26.5545,-82.1715,1.71,36.91,1111122 
SCCF RECON,ioos:station:SCCF:51:1,2008-03-06T09:00:00Z,26.5545,-82.1715,1.584,36.91,1111122 
SCCF RECON,ioos:station:SCCF:51:1,2008-03-06T10:00:00Z,26.5545,-82.1715,1.48,36.89,1111122 
SCCF RECON,ioos:station:SCCF:51:1,2008-03-06T11:00:00Z,26.5545,-82.1715,1.39,36.84,1111122 
SCCF RECON,ioos:station:SCCF:51:1,2008-03-06T12:00:00Z,26.5545,-82.1715,1.351,36.83,1111122 
SCCF RECON,ioos:station:SCCF:51:1,2008-03-06T13:00:00Z,26.5545,-82.1715,1.395,36.88,1111122 
SCCF RECON,ioos:station:SCCF:51:1,2008-03-06T14:00:00Z,26.5545,-82.1715,1.489,36.99,1111122 
SCCF RECON,ioos:station:SCCF:51:1,2008-03-06T15:00:00Z,26.5545,-82.1715,1.628,36.98,1111122 
SCCF RECON,ioos:station:SCCF:51:1,2008-03-06T16:00:00Z,26.5545,-82.1715,1.759,37.01,1111122 
SCCF RECON,ioos:station:SCCF:51:1,2008-03-06T17:00:00Z,26.5545,-82.1715,1.849,37.0,1111122 
SCCF RECON,ioos:station:SCCF:51:1,2008-03-06T18:00:00Z,26.5545,-82.1715,1.889,36.95,1111122 
SCCF RECON,ioos:station:SCCF:51:1,2008-03-06T19:00:00Z,26.5545,-82.1715,1.841,36.99,1111122 
SCCF RECON,ioos:station:SCCF:51:1,2008-03-06T20:00:00Z,26.5545,-82.1715,1.76,36.97,1111122 
SCCF RECON,ioos:station:SCCF:51:1,2008-03-06T21:00:00Z,26.5545,-82.1715,1.666,36.87,1111122 
SCCF RECON,ioos:station:SCCF:51:1,2008-03-06T22:00:00Z,26.5545,-82.1715,1.598,36.86,1111122 
SCCF RECON,ioos:station:SCCF:51:1,2008-03-06T23:00:00Z,26.5545,-82.1715,1.578,36.87,1111122 
SCCF RECON,ioos:station:SCCF:51:1,2008-03-07T00:00:00Z,26.5545,-82.1715,1.62,36.86,1111122 
SCCF RECON,ioos:station:SCCF:51:1,2008-03-07T01:00:00Z,26.5545,-82.1715,1.69,36.91,1111122 
SCCF RECON,ioos:station:SCCF:51:1,2008-03-07T02:00:00Z,26.5545,-82.1715,1.79,36.97,1111122 
SCCF RECON,ioos:station:SCCF:51:1,2008-03-07T03:00:00Z,26.5545,-82.1715,1.911,37.0,1111122 
SCCF RECON,ioos:station:SCCF:51:1,2008-03-07T04:00:00Z,26.5545,-82.1715,2.002,37.0,1111122 
SCCF RECON,ioos:station:SCCF:51:1,2008-03-07T05:00:00Z,26.5545,-82.1715,2.034,36.98,1111122 
SCCF RECON,ioos:station:SCCF:51:1,2008-03-07T06:00:00Z,26.5545,-82.1715,2.0,36.95,1111122 
SCCF RECON,ioos:station:SCCF:51:1,2008-03-07T07:00:00Z,26.5545,-82.1715,1.923,36.96,1111122 
SCCF RECON,ioos:station:SCCF:51:1,2008-03-07T08:00:00Z,26.5545,-82.1715,1.808,36.88,1111122 
SCCF RECON,ioos:station:SCCF:51:1,2008-03-07T09:00:00Z,26.5545,-82.1715,1.691,36.82,1111122 
SCCF RECON,ioos:station:SCCF:51:1,2008-03-07T10:00:00Z,26.5545,-82.1715,1.584,36.68,1111122 
SCCF RECON,ioos:station:SCCF:51:1,2008-03-07T11:00:00Z,26.5545,-82.1715,1.486,36.59,1111122 
SCCF RECON,ioos:station:SCCF:51:1,2008-03-07T12:00:00Z,26.5545,-82.1715,1.41,36.5,1111122 
SCCF RECON,ioos:station:SCCF:51:1,2008-03-07T13:00:00Z,26.5545,-82.1715,1.423,36.46,1111122 
SCCF RECON,ioos:station:SCCF:51:1,2008-03-07T14:00:00Z,26.5545,-82.1715,1.495,36.49,1111122 
SCCF RECON,ioos:station:SCCF:51:1,2008-03-07T15:00:00Z,26.5545,-82.1715,1.636,36.57,1111122 
SCCF RECON,ioos:station:SCCF:51:1,2008-03-07T16:00:00Z,26.5545,-82.1715,1.775,36.87,1111122 
SCCF RECON,ioos:station:SCCF:51:1,2008-03-07T17:00:00Z,26.5545,-82.1715,1.899,36.97,1111122 
SCCF RECON,ioos:station:SCCF:51:1,2008-03-07T18:00:00Z,26.5545,-82.1715,1.984,36.95,1111122 
SCCF RECON,ioos:station:SCCF:51:1,2008-03-07T19:00:00Z,26.5545,-82.1715,1.952,36.98,1111122 
SCCF RECON,ioos:station:SCCF:51:1,2008-03-07T20:00:00Z,26.5545,-82.1715,1.854,36.58,1111122 
SCCF RECON,ioos:station:SCCF:51:1,2008-03-07T21:00:00Z,26.5545,-82.1715,1.737,36.38,1111122 
SCCF RECON,ioos:station:SCCF:51:1,2008-03-07T22:00:00Z,26.5545,-82.1715,1.626,36.36,1111122 
SCCF RECON,ioos:station:SCCF:51:1,2008-03-07T23:00:00Z,26.5545,-82.1715,1.546,36.33,1111122 
SCCF RECON,ioos:station:SCCF:51:1,2008-03-08T00:00:00Z,26.5545,-82.1715,1.524,36.34,1111122 
SCCF RECON,ioos:station:SCCF:51:1,2008-03-08T01:00:00Z,26.5545,-82.1715,1.595,36.42,1111122 
SCCF RECON,ioos:station:SCCF:51:1,2008-03-08T02:00:00Z,26.5545,-82.1715,1.694,36.4,1111122 
SCCF RECON,ioos:station:SCCF:51:1,2008-03-08T03:00:00Z,26.5545,-82.1715,1.83,36.39,1111122 
SCCF RECON,ioos:station:SCCF:51:1,2008-03-08T04:00:00Z,26.5545,-82.1715,1.988,36.88,1111122 
SCCF RECON,ioos:station:SCCF:51:1,2008-03-08T05:00:00Z,26.5545,-82.1715,2.111,36.65,1111122 
SCCF RECON,ioos:station:SCCF:51:1,2008-03-08T06:00:00Z,26.5545,-82.1715,2.169,36.8,1111122 
SCCF RECON,ioos:station:SCCF:51:1,2008-03-08T07:00:00Z,26.5545,-82.1715,2.18,36.7,1111122 
SCCF RECON,ioos:station:SCCF:51:1,2008-03-08T08:00:00Z,26.5545,-82.1715,2.098,36.74,1111122 
SCCF RECON,ioos:station:SCCF:51:1,2008-03-08T09:00:00Z,26.5545,-82.1715,1.978,36.45,1111122 
SCCF RECON,ioos:station:SCCF:51:1,2008-03-08T10:00:00Z,26.5545,-82.1715,1.833,36.33,1111122 
SCCF RECON,ioos:station:SCCF:51:1,2008-03-08T11:00:00Z,26.5545,-82.1715,1.748,36.31,1111122 
SCCF RECON,ioos:station:SCCF:51:1,2008-03-08T12:00:00Z,26.5545,-82.1715,1.65,36.28,1111122 
SCCF RECON,ioos:station:SCCF:51:1,2008-03-08T13:00:00Z,26.5545,-82.1715,1.647,36.22,1111122 
SCCF RECON,ioos:station:SCCF:51:1,2008-03-08T14:00:00Z,26.5545,-82.1715,1.68,36.26,1111122 
SCCF RECON,ioos:station:SCCF:51:1,2008-03-08T15:00:00Z,26.5545,-82.1715,1.742,36.36,1111122 
SCCF RECON,ioos:station:SCCF:51:1,2008-03-08T16:00:00Z,26.5545,-82.1715,1.81,36.44,1111122 
SCCF RECON,ioos:station:SCCF:51:1,2008-03-08T17:00:00Z,26.5545,-82.1715,1.868,36.57,1111122 
SCCF RECON,ioos:station:SCCF:51:1,2008-03-08T18:00:00Z,26.5545,-82.1715,1.847,36.72,1111122 
SCCF RECON,ioos:station:SCCF:51:1,2008-03-08T19:00:00Z,26.5545,-82.1715,1.804,36.91,1111122 
SCCF RECON,ioos:station:SCCF:51:1,2008-03-08T20:00:00Z,26.5545,-82.1715,1.713,36.9,1111122 
SCCF RECON,ioos:station:SCCF:51:1,2008-03-08T21:00:00Z,26.5545,-82.1715,1.599,36.85,1111122 
SCCF RECON,ioos:station:SCCF:51:1,2008-03-08T22:00:00Z,26.5545,-82.1715,1.489,36.87,1111122 
SCCF RECON,ioos:station:SCCF:51:1,2008-03-08T23:00:00Z,26.5545,-82.1715,1.395,36.86,1111122 
SCCF RECON,ioos:station:SCCF:51:1,2008-03-09T00:00:00Z,26.5545,-82.1715,1.316,36.87,1111122 
SCCF RECON,ioos:station:SCCF:51:1,2008-03-09T01:00:00Z,26.5545,-82.1715,1.302,36.89,1111122 
SCCF RECON,ioos:station:SCCF:51:1,2008-03-09T02:00:00Z,26.5545,-82.1715,1.325,36.93,1111122 
SCCF RECON,ioos:station:SCCF:51:1,2008-03-09T03:00:00Z,26.5545,-82.1715,1.403,36.99,1111122 
SCCF RECON,ioos:station:SCCF:51:1,2008-03-09T04:00:00Z,26.5545,-82.1715,1.49,36.94,1111122 
SCCF RECON,ioos:station:SCCF:51:1,2008-03-09T05:00:00Z,26.5545,-82.1715,1.61,36.99,1111122 
SCCF RECON,ioos:station:SCCF:51:1,2008-03-09T06:00:00Z,26.5545,-82.1715,1.716,37.01,1111122 
SCCF RECON,ioos:station:SCCF:51:1,2008-03-09T07:00:00Z,26.5545,-82.1715,1.764,37.03,1111122 
SCCF RECON,ioos:station:SCCF:51:1,2008-03-09T08:00:00Z,26.5545,-82.1715,1.745,37.02,1111122 
SCCF RECON,ioos:station:SCCF:51:1,2008-03-09T09:00:00Z,26.5545,-82.1715,1.668,37.02,1111122 
SCCF RECON,ioos:station:SCCF:51:1,2008-03-09T10:00:00Z,26.5545,-82.1715,1.581,37.07,1111122 
SCCF RECON,ioos:station:SCCF:51:1,2008-03-09T11:00:00Z,26.5545,-82.1715,1.5,37.0,1111122 
SCCF RECON,ioos:station:SCCF:51:1,2008-03-09T12:00:00Z,26.5545,-82.1715,1.436,36.97,1111122 
SCCF RECON,ioos:station:SCCF:51:1,2008-03-09T13:00:00Z,26.5545,-82.1715,1.405,36.97,1111122 
SCCF RECON,ioos:station:SCCF:51:1,2008-03-09T14:00:00Z,26.5545,-82.1715,1.423,36.96,1111122 
SCCF RECON,ioos:station:SCCF:51:1,2008-03-09T15:00:00Z,26.5545,-82.1715,1.496,37.09,1111122 
SCCF RECON,ioos:station:SCCF:51:1,2008-03-09T16:00:00Z,26.5545,-82.1715,1.597,37.11,1111122 
SCCF RECON,ioos:station:SCCF:51:1,2008-03-09T17:00:00Z,26.5545,-82.1715,1.732,37.05,1111122 
SCCF RECON,ioos:station:SCCF:51:1,2008-03-09T18:00:00Z,26.5545,-82.1715,1.85,37.01,1111122 
SCCF RECON,ioos:station:SCCF:51:1,2008-03-09T19:00:00Z,26.5545,-82.1715,1.908,37.04,1111122 
SCCF RECON,ioos:station:SCCF:51:1,2008-03-09T20:00:00Z,26.5545,-82.1715,1.857,37.06,1111122 
SCCF RECON,ioos:station:SCCF:51:1,2008-03-09T21:00:00Z,26.5545,-82.1715,1.759,37.1,1111122 
SCCF RECON,ioos:station:SCCF:51:1,2008-03-09T22:00:00Z,26.5545,-82.1715,1.641,37.09,1111122 
SCCF RECON,ioos:station:SCCF:51:1,2008-03-09T23:00:00Z,26.5545,-82.1715,1.521,37.04,1111122 
SCCF RECON,ioos:station:SCCF:51:1,2008-03-10T00:00:00Z,26.5545,-82.1715,1.419,37.04,1111122 
SCCF RECON,ioos:station:SCCF:51:1,2008-03-10T01:00:00Z,26.5545,-82.1715,1.34,37.01,1111122 
SCCF RECON,ioos:station:SCCF:51:1,2008-03-10T02:00:00Z,26.5545,-82.1715,1.294,37.02,1111122 
SCCF RECON,ioos:station:SCCF:51:1,2008-03-10T03:00:00Z,26.5545,-82.1715,1.315,37.06,1111122 
SCCF RECON,ioos:station:SCCF:51:1,2008-03-10T04:00:00Z,26.5545,-82.1715,1.391,37.08,1111122 
SCCF RECON,ioos:station:SCCF:51:1,2008-03-10T05:00:00Z,26.5545,-82.1715,1.5,37.13,1111122 
SCCF RECON,ioos:station:SCCF:51:1,2008-03-10T06:00:00Z,26.5545,-82.1715,1.615,37.1,1111122 
SCCF RECON,ioos:station:SCCF:51:1,2008-03-10T07:00:00Z,26.5545,-82.1715,1.693,37.09,1111122 
SCCF RECON,ioos:station:SCCF:51:1,2008-03-10T08:00:00Z,26.5545,-82.1715,1.73,37.1,1111122 
SCCF RECON,ioos:station:SCCF:51:1,2008-03-10T09:00:00Z,26.5545,-82.1715,1.696,37.09,1111122 
SCCF RECON,ioos:station:SCCF:51:1,2008-03-10T10:00:00Z,26.5545,-82.1715,1.63,37.09,1111122 
SCCF RECON,ioos:station:SCCF:51:1,2008-03-10T11:00:00Z,26.5545,-82.1715,1.559,37.06,1111122 
SCCF RECON,ioos:station:SCCF:51:1,2008-03-10T12:00:00Z,26.5545,-82.1715,1.506,37.03,1111122 
SCCF RECON,ioos:station:SCCF:51:1,2008-03-10T13:00:00Z,26.5545,-82.1715,1.505,37.02,1111122 
SCCF RECON,ioos:station:SCCF:51:1,2008-03-10T14:00:00Z,26.5545,-82.1715,1.552,37.02,1111122 
SCCF RECON,ioos:station:SCCF:51:1,2008-03-10T15:00:00Z,26.5545,-82.1715,1.612,37.07,1111122 
SCCF RECON,ioos:station:SCCF:51:1,2008-03-10T16:00:00Z,26.5545,-82.1715,1.7,37.12,1111122 
SCCF RECON,ioos:station:SCCF:51:1,2008-03-10T17:00:00Z,26.5545,-82.1715,1.823,37.08,1111122 
SCCF RECON,ioos:station:SCCF:51:1,2008-03-10T18:00:00Z,26.5545,-82.1715,1.926,37.01,1111122 
SCCF RECON,ioos:station:SCCF:51:1,2008-03-10T19:00:00Z,26.5545,-82.1715,1.99,37.02,1111122 
SCCF RECON,ioos:station:SCCF:51:1,2008-03-10T20:00:00Z,26.5545,-82.1715,1.995,37.06,1111122 
SCCF RECON,ioos:station:SCCF:51:1,2008-03-10T21:00:00Z,26.5545,-82.1715,1.912,37.07,1111122 
SCCF RECON,ioos:station:SCCF:51:1,2008-03-10T22:00:00Z,26.5545,-82.1715,1.8,37.11,1111122 
SCCF RECON,ioos:station:SCCF:51:1,2008-03-10T23:00:00Z,26.5545,-82.1715,1.67,37.08,1111122 
SCCF RECON,ioos:station:SCCF:51:1,2008-03-11T00:00:00Z,26.5545,-82.1715,1.542,37.06,1111122 
SCCF RECON,ioos:station:SCCF:51:1,2008-03-11T01:00:00Z,26.5545,-82.1715,1.436,37.08,1111122 
SCCF RECON,ioos:station:SCCF:51:1,2008-03-11T02:00:00Z,26.5545,-82.1715,1.347,37.09,1111122 
SCCF RECON,ioos:station:SCCF:51:1,2008-03-11T03:00:00Z,26.5545,-82.1715,1.292,37.06,1111122 
SCCF RECON,ioos:station:SCCF:51:1,2008-03-11T04:00:00Z,26.5545,-82.1715,1.342,37.03,1111122 
SCCF RECON,ioos:station:SCCF:51:1,2008-03-11T05:00:00Z,26.5545,-82.1715,1.435,37.02,1111122 
SCCF RECON,ioos:station:SCCF:51:1,2008-03-11T06:00:00Z,26.5545,-82.1715,1.57,37.07,1111122 
SCCF RECON,ioos:station:SCCF:51:1,2008-03-11T07:00:00Z,26.5545,-82.1715,1.669,37.03,1111122 
SCCF RECON,ioos:station:SCCF:51:1,2008-03-11T08:00:00Z,26.5545,-82.1715,1.734,37.02,1111122 
SCCF RECON,ioos:station:SCCF:51:1,2008-03-11T09:00:00Z,26.5545,-82.1715,1.759,37.06,1111122 
SCCF RECON,ioos:station:SCCF:51:1,2008-03-11T10:00:00Z,26.5545,-82.1715,1.732,37.04,1111122 
SCCF RECON,ioos:station:SCCF:51:1,2008-03-11T11:00:00Z,26.5545,-82.1715,1.684,37.05,1111122 
SCCF RECON,ioos:station:SCCF:51:1,2008-03-11T12:00:00Z,26.5545,-82.1715,1.621,37.1,1111122 
SCCF RECON,ioos:station:SCCF:51:1,2008-03-11T13:00:00Z,26.5545,-82.1715,1.593,37.09,1111122 
SCCF RECON,ioos:station:SCCF:51:1,2008-03-11T14:00:00Z,26.5545,-82.1715,1.616,37.1,1111122 
SCCF RECON,ioos:station:SCCF:51:1,2008-03-11T15:00:00Z,26.5545,-82.1715,1.668,37.09,1111122 
SCCF RECON,ioos:station:SCCF:51:1,2008-03-11T16:00:00Z,26.5545,-82.1715,1.751,37.07,1111122 
SCCF RECON,ioos:station:SCCF:51:1,2008-03-11T17:00:00Z,26.5545,-82.1715,1.856,37.04,1111122 
SCCF RECON,ioos:station:SCCF:51:1,2008-03-11T18:00:00Z,26.5545,-82.1715,1.961,37.03,1111122 
SCCF RECON,ioos:station:SCCF:51:1,2008-03-11T19:00:00Z,26.5545,-82.1715,2.049,37.04,1111122 
SCCF RECON,ioos:station:SCCF:51:1,2008-03-11T20:00:00Z,26.5545,-82.1715,2.056,37.04,1111122 
SCCF RECON,ioos:station:SCCF:51:1,2008-03-11T21:00:00Z,26.5545,-82.1715,2.003,37.05,1111122 